TimeCST,TemperatureF,Dew PointF,Humidity,Sea Level PressureIn,VisibilityMPH,Wind Direction,Wind SpeedMPH,Gust SpeedMPH,PrecipitationIn,Events,Conditions,WindDirDegrees,DateUTC
12:15 AM,51.8,41.0,67,30.17,10.0,SW,4.6,-,N/A,,Clear,220,2012-11-23 06:15:00
12:55 AM,53.6,42.8,67,30.17,10.0,Calm,Calm,-,N/A,,Clear,0,2012-11-23 06:55:00
1:15 AM,51.8,42.8,71,30.18,10.0,WSW,4.6,-,N/A,,Clear,240,2012-11-23 07:15:00
1:35 AM,51.8,42.8,71,30.19,10.0,WSW,3.5,-,N/A,,Clear,250,2012-11-23 07:35:00
1:55 AM,48.2,41.0,76,30.20,10.0,WSW,3.5,-,N/A,,Clear,240,2012-11-23 07:55:00
2:15 AM,48.2,41.0,76,30.20,10.0,WSW,3.5,-,N/A,,Clear,240,2012-11-23 08:15:00
2:35 AM,48.2,41.0,76,30.20,10.0,SW,4.6,-,N/A,,Clear,230,2012-11-23 08:35:00
2:55 AM,50.0,42.8,76,30.20,10.0,Calm,Calm,-,N/A,,Clear,0,2012-11-23 08:55:00
3:15 AM,48.2,41.0,76,30.19,10.0,SW,3.5,-,N/A,,Clear,220,2012-11-23 09:15:00
3:35 AM,46.4,41.0,81,30.19,10.0,SSW,3.5,-,N/A,,Clear,210,2012-11-23 09:35:00
3:55 AM,46.4,39.2,76,30.18,10.0,SSW,5.8,-,N/A,,Clear,200,2012-11-23 09:55:00
4:15 AM,46.4,39.2,76,30.18,10.0,SSW,4.6,-,N/A,,Clear,200,2012-11-23 10:15:00
4:35 AM,46.4,39.2,76,30.18,10.0,SSW,4.6,-,N/A,,Clear,200,2012-11-23 10:35:00
4:55 AM,46.4,39.2,76,30.18,10.0,SW,3.5,-,N/A,,Clear,220,2012-11-23 10:55:00
5:15 AM,46.4,41.0,81,30.18,10.0,SW,4.6,-,N/A,,Clear,220,2012-11-23 11:15:00
5:35 AM,48.2,41.0,76,30.19,10.0,SSW,4.6,-,N/A,,Clear,210,2012-11-23 11:35:00
5:50 AM,44.6,39.2,81,30.19,10.0,SSW,4.6,-,N/A,,Clear,210,2012-11-23 11:50:00
6:55 AM,48.2,41.0,76,30.21,10.0,West,4.6,-,N/A,,Clear,260,2012-11-23 12:55:00
7:55 AM,53.6,44.6,72,30.22,10.0,West,4.6,-,N/A,,Mostly Cloudy,270,2012-11-23 13:55:00
8:50 AM,55.4,46.4,72,30.22,10.0,West,4.6,-,N/A,,Scattered Clouds,270,2012-11-23 14:50:00
9:55 AM,62.6,50.0,63,30.22,10.0,NW,13.8,20.7,N/A,,Mostly Cloudy,310,2012-11-23 15:55:00
10:50 AM,62.6,51.8,68,30.22,10.0,NW,9.2,-,N/A,,Mostly Cloudy,320,2012-11-23 16:50:00
12:50 PM,62.6,51.8,68,30.19,10.0,NW,9.2,-,N/A,,Overcast,320,2012-11-23 18:50:00
12:55 PM,62.6,51.8,68,30.19,10.0,North,9.2,-,N/A,,Mostly Cloudy,350,2012-11-23 18:55:00
1:50 PM,60.8,51.8,72,30.19,10.0,NW,9.2,-,N/A,,Overcast,310,2012-11-23 19:50:00
2:55 PM,60.8,51.8,72,30.19,10.0,North,6.9,-,N/A,,Overcast,350,2012-11-23 20:55:00
3:50 PM,60.8,46.4,59,30.19,10.0,NW,9.2,-,N/A,,Scattered Clouds,310,2012-11-23 21:50:00
4:45 PM,57.2,42.8,59,30.20,10.0,NW,5.8,-,N/A,,Clear,310,2012-11-23 22:45:00
4:50 PM,51.8,33.8,50,30.25,10.0,NNW,11.5,17.3,N/A,,Clear,330,2012-11-23 22:50:00
5:55 PM,51.8,41.0,67,30.21,10.0,WNW,3.5,-,N/A,,Clear,290,2012-11-23 23:55:00
6:45 PM,51.8,37.4,58,30.22,10.0,NW,9.2,-,N/A,,Clear,320,2012-11-24 00:45:00
7:45 PM,50.0,32.0,50,30.24,10.0,NW,6.9,-,N/A,,Clear,320,2012-11-24 01:45:00
8:15 PM,48.2,32.0,54,30.24,10.0,NW,5.8,-,N/A,,Clear,320,2012-11-24 02:15:00
8:35 PM,48.2,30.2,50,30.24,10.0,NW,5.8,-,N/A,,Clear,320,2012-11-24 02:35:00
8:55 PM,48.2,30.2,50,30.24,10.0,NW,6.9,-,N/A,,Clear,320,2012-11-24 02:55:00
9:15 PM,46.4,30.2,53,30.25,10.0,NW,5.8,-,N/A,,Clear,320,2012-11-24 03:15:00
9:35 PM,46.4,30.2,53,30.25,10.0,NW,6.9,-,N/A,,Clear,320,2012-11-24 03:35:00
9:55 PM,46.4,32.0,57,30.26,10.0,NNW,8.1,-,N/A,,Clear,330,2012-11-24 03:55:00
10:15 PM,46.4,32.0,57,30.26,10.0,NNW,11.5,-,N/A,,Clear,340,2012-11-24 04:15:00
10:55 PM,46.4,30.2,53,30.26,10.0,North,12.7,18.4,N/A,,Clear,350,2012-11-24 04:55:00
11:15 PM,44.6,30.2,57,30.26,10.0,North,11.5,-,N/A,,Clear,350,2012-11-24 05:15:00
11:35 PM,44.6,30.2,57,30.26,10.0,North,11.5,-,N/A,,Clear,350,2012-11-24 05:35:00
11:55 PM,44.6,30.2,57,30.26,10.0,NNW,10.4,-,N/A,,Clear,340,2012-11-24 05:55:00